TimePST,TemperatureF,Dew PointF,Humidity,Sea Level PressureIn,VisibilityMPH,Wind Direction,Wind SpeedMPH,Gust SpeedMPH,PrecipitationIn,Events,Conditions,WindDirDegrees,DateUTC
12:15 AM,46.4,28.4,50,29.98,10.0,East,17.3,24.2,N/A,,Clear,100,2013-11-28 08:15:00
12:35 AM,46.4,28.4,50,29.98,10.0,ESE,12.7,24.2,N/A,,Clear,110,2013-11-28 08:35:00
12:55 AM,46.4,28.4,50,29.98,10.0,SE,10.4,23.0,N/A,,Clear,130,2013-11-28 08:55:00
1:15 AM,46.4,28.4,50,29.98,10.0,ESE,10.4,-,N/A,,Clear,110,2013-11-28 09:15:00
1:35 AM,46.4,28.4,50,29.98,10.0,ESE,12.7,-,N/A,,Clear,110,2013-11-28 09:35:00
1:55 AM,46.4,28.4,50,29.99,10.0,ESE,11.5,-,N/A,,Clear,120,2013-11-28 09:55:00
2:15 AM,44.6,28.4,53,29.98,10.0,ESE,10.4,18.4,N/A,,Clear,120,2013-11-28 10:15:00
2:35 AM,44.6,28.4,53,29.98,10.0,ESE,11.5,16.1,N/A,,Clear,120,2013-11-28 10:35:00
2:55 AM,44.6,28.4,53,29.98,10.0,SE,9.2,-,N/A,,Clear,130,2013-11-28 10:55:00
3:15 AM,44.6,28.4,53,29.97,10.0,SE,10.4,-,N/A,,Clear,130,2013-11-28 11:15:00
3:35 AM,44.6,28.4,53,29.97,10.0,SE,11.5,19.6,N/A,,Clear,130,2013-11-28 11:35:00
3:55 AM,44.6,28.4,53,29.96,10.0,SE,12.7,16.1,N/A,,Clear,130,2013-11-28 11:55:00
4:15 AM,44.6,28.4,53,29.96,10.0,SE,12.7,-,N/A,,Clear,130,2013-11-28 12:15:00
4:35 AM,44.6,28.4,53,29.96,10.0,ESE,10.4,18.4,N/A,,Clear,120,2013-11-28 12:35:00
4:55 AM,44.6,28.4,53,29.96,10.0,ESE,12.7,-,N/A,,Clear,120,2013-11-28 12:55:00
5:15 AM,44.6,28.4,53,29.96,10.0,ESE,12.7,18.4,N/A,,Clear,110,2013-11-28 13:15:00
5:35 AM,46.4,28.4,50,29.97,10.0,ESE,10.4,-,N/A,,Clear,110,2013-11-28 13:35:00
5:55 AM,46.4,28.4,50,29.97,10.0,ESE,12.7,17.3,N/A,,Clear,110,2013-11-28 13:55:00
6:15 AM,46.4,28.4,50,29.97,10.0,East,15.0,19.6,N/A,,Clear,100,2013-11-28 14:15:00
6:35 AM,46.4,28.4,50,29.98,10.0,ESE,15.0,18.4,N/A,,Clear,110,2013-11-28 14:35:00
6:55 AM,44.6,28.4,53,29.99,10.0,SE,13.8,-,N/A,,Clear,130,2013-11-28 14:55:00
7:15 AM,44.6,28.4,53,29.99,10.0,ESE,11.5,-,N/A,,Clear,120,2013-11-28 15:15:00
7:35 AM,46.4,28.4,50,30.00,10.0,ESE,15.0,21.9,N/A,,Clear,120,2013-11-28 15:35:00
7:55 AM,46.4,28.4,50,30.01,10.0,ESE,15.0,21.9,N/A,,Clear,110,2013-11-28 15:55:00
8:15 AM,48.2,28.4,46,30.01,10.0,East,15.0,21.9,N/A,,Clear,100,2013-11-28 16:15:00
8:35 AM,48.2,28.4,46,30.02,10.0,ESE,17.3,24.2,N/A,,Clear,110,2013-11-28 16:35:00
8:55 AM,50.0,28.4,43,30.02,10.0,ESE,17.3,24.2,N/A,,Clear,110,2013-11-28 16:55:00
9:15 AM,50.0,28.4,43,30.02,10.0,ESE,18.4,24.2,N/A,,Clear,120,2013-11-28 17:15:00
9:35 AM,50.0,28.4,43,30.03,10.0,ESE,18.4,25.3,N/A,,Clear,120,2013-11-28 17:35:00
9:55 AM,50.0,28.4,43,30.02,10.0,East,16.1,23.0,N/A,,Clear,100,2013-11-28 17:55:00
10:15 AM,51.8,28.4,41,30.02,9.0,ESE,20.7,33.4,N/A,,Clear,120,2013-11-28 18:15:00
10:35 AM,51.8,26.6,38,30.02,9.0,ESE,23.0,39.1,N/A,,Clear,110,2013-11-28 18:35:00
10:55 AM,53.6,28.4,38,30.01,9.0,East,19.6,26.5,N/A,,Mostly Cloudy,100,2013-11-28 18:55:00
11:15 AM,51.8,26.6,38,30.00,10.0,ESE,24.2,32.2,N/A,,Scattered Clouds,110,2013-11-28 19:15:00
11:35 AM,50.0,26.6,40,30.00,10.0,ESE,18.4,25.3,N/A,,Scattered Clouds,110,2013-11-28 19:35:00
11:55 AM,50.0,28.4,43,30.01,10.0,ESE,23.0,27.6,N/A,,Scattered Clouds,110,2013-11-28 19:55:00
12:15 PM,50.0,28.4,43,30.01,10.0,ESE,16.1,26.5,N/A,,Mostly Cloudy,110,2013-11-28 20:15:00
12:35 PM,50.0,28.4,43,30.01,10.0,ESE,17.3,24.2,N/A,,Mostly Cloudy,110,2013-11-28 20:35:00
12:55 PM,50.0,28.4,43,30.00,10.0,ESE,15.0,21.9,N/A,,Scattered Clouds,120,2013-11-28 20:55:00
1:15 PM,51.8,28.4,41,30.00,10.0,ESE,15.0,21.9,N/A,,Scattered Clouds,110,2013-11-28 21:15:00
1:35 PM,51.8,28.4,41,30.00,10.0,East,15.0,19.6,N/A,,Mostly Cloudy,100,2013-11-28 21:35:00
1:55 PM,53.6,28.4,38,29.99,10.0,East,16.1,25.3,N/A,,Overcast,100,2013-11-28 21:55:00
2:15 PM,53.6,28.4,38,29.99,10.0,East,15.0,25.3,N/A,,Mostly Cloudy,90,2013-11-28 22:15:00
2:35 PM,51.8,28.4,41,30.00,10.0,ESE,18.4,26.5,N/A,,Mostly Cloudy,110,2013-11-28 22:35:00
2:55 PM,50.0,28.4,43,30.00,10.0,ESE,18.4,25.3,N/A,,Mostly Cloudy,110,2013-11-28 22:55:00
3:15 PM,50.0,26.6,40,30.00,10.0,ESE,17.3,24.2,N/A,,Mostly Cloudy,110,2013-11-28 23:15:00
3:35 PM,50.0,26.6,40,30.01,10.0,ESE,17.3,23.0,N/A,,Overcast,110,2013-11-28 23:35:00
3:55 PM,50.0,28.4,43,30.01,10.0,ESE,17.3,26.5,N/A,,Mostly Cloudy,110,2013-11-28 23:55:00
4:15 PM,50.0,28.4,43,30.01,10.0,East,12.7,21.9,N/A,,Overcast,100,2013-11-29 00:15:00
4:35 PM,50.0,28.4,43,30.01,10.0,East,15.0,24.2,N/A,,Overcast,90,2013-11-29 00:35:00
4:55 PM,50.0,28.4,43,30.02,10.0,East,13.8,23.0,N/A,,Overcast,100,2013-11-29 00:55:00
5:15 PM,50.0,28.4,43,30.03,10.0,ESE,17.3,23.0,N/A,,Overcast,110,2013-11-29 01:15:00
5:35 PM,50.0,28.4,43,30.03,10.0,ESE,15.0,18.4,N/A,,Overcast,110,2013-11-29 01:35:00
5:55 PM,50.0,28.4,43,30.04,10.0,East,13.8,19.6,N/A,,Overcast,90,2013-11-29 01:55:00
6:15 PM,48.2,30.2,50,30.05,10.0,East,12.7,-,N/A,,Overcast,80,2013-11-29 02:15:00
6:35 PM,48.2,30.2,50,30.06,10.0,East,13.8,20.7,N/A,,Overcast,80,2013-11-29 02:35:00
6:55 PM,48.2,30.2,50,30.06,10.0,East,11.5,18.4,N/A,,Overcast,80,2013-11-29 02:55:00
7:15 PM,48.2,28.4,46,30.07,10.0,East,17.3,23.0,N/A,,Overcast,90,2013-11-29 03:15:00
7:35 PM,48.2,28.4,46,30.07,10.0,East,15.0,21.9,N/A,,Overcast,90,2013-11-29 03:35:00
7:55 PM,48.2,28.4,46,30.08,10.0,East,10.4,17.3,N/A,,Overcast,100,2013-11-29 03:55:00
8:15 PM,48.2,28.4,46,30.09,10.0,ESE,10.4,-,N/A,,Overcast,110,2013-11-29 04:15:00
8:35 PM,48.2,28.4,46,30.10,10.0,ESE,8.1,-,N/A,,Overcast,120,2013-11-29 04:35:00
8:55 PM,46.4,28.4,50,30.10,10.0,ESE,9.2,-,N/A,,Mostly Cloudy,110,2013-11-29 04:55:00
9:15 PM,46.4,28.4,50,30.11,10.0,ESE,8.1,-,N/A,,Scattered Clouds,120,2013-11-29 05:15:00
9:35 PM,44.6,28.4,53,30.11,10.0,ESE,9.2,-,N/A,,Mostly Cloudy,110,2013-11-29 05:35:00
9:55 PM,46.4,28.4,50,30.12,10.0,ESE,9.2,-,N/A,,Mostly Cloudy,110,2013-11-29 05:55:00
10:15 PM,42.8,28.4,57,30.12,10.0,SE,9.2,-,N/A,,Scattered Clouds,140,2013-11-29 06:15:00
10:35 PM,42.8,28.4,57,30.12,10.0,SE,10.4,-,N/A,,Mostly Cloudy,130,2013-11-29 06:35:00
10:55 PM,44.6,28.4,53,30.12,10.0,SSE,9.2,-,N/A,,Overcast,150,2013-11-29 06:55:00
11:15 PM,44.6,28.4,53,30.13,10.0,SE,10.4,-,N/A,,Overcast,130,2013-11-29 07:15:00
11:35 PM,41.0,28.4,61,30.12,10.0,SE,10.4,-,N/A,,Scattered Clouds,130,2013-11-29 07:35:00
11:55 PM,41.0,28.4,61,30.12,10.0,SE,10.4,-,N/A,,Clear,140,2013-11-29 07:55:00